Theta_e
335 337 345 350 365 363 364 344 340 353 352 346 345 348 349 350 349 356 348 348 350 350 350 351 350 351 352 351 351 349 351 350 350 348 351 349 351 351 351 351 352 352 353 352 352 352 348 343 346
335 341 347 356 367 366 358 345 347 355 351 344 344 344 348 352 348 347 347 350 347 351 350 350 350 350 352 351 350 349 351 352 352 351 350 351 352 349 353 352 352 350 349 352 352 351 347 347 346
334 342 355 359 362 364 356 346 346 353 347 344 345 344 348 351 347 346 347 348 350 350 346 350 348 349 351 351 349 349 350 352 352 350 346 347 347 352 352 352 353 353 352 352 352 345 339 345 344
341 352 356 361 364 361 356 344 351 346 343 343 344 348 347 346 347 347 348 349 349 346 349 349 350 352 352 351 352 351 350 352 352 352 352 353 352 352 351 351 352 353 353 350 351 339 337 343 346
345 355 362 365 359 357 358 349 351 352 347 345 344 348 352 347 347 350 349 348 345 344 345 347 347 346 351 350 352 351 350 351 351 351 351 349 351 351 352 352 353 351 351 349 348 333 341 344 344
354 356 364 366 358 355 354 354 353 353 346 346 346 348 351 349 349 349 347 345 344 349 343 349 350 348 346 352 352 351 353 352 351 351 351 350 350 350 350 352 352 351 348 336 328 330 339 343 343
357 359 363 361 357 357 361 354 354 347 346 346 343 346 346 347 346 347 346 345 349 349 348 346 351 352 348 350 352 352 352 352 352 349 347 348 348 351 352 352 352 343 337 331 327 329 338 342 341
357 358 363 361 358 362 359 356 353 347 348 343 342 345 352 348 347 347 347 348 349 349 348 349 349 348 347 350 353 352 351 352 351 347 346 346 349 352 349 344 342 341 337 330 328 337 339 340 340
354 359 366 363 362 360 359 358 354 350 347 344 343 343 347 348 348 349 346 341 348 349 349 348 348 351 347 350 352 351 347 346 351 346 344 342 344 347 343 342 344 345 340 332 334 335 335 336 336
356 359 364 358 358 362 358 358 356 352 352 346 343 345 346 346 349 348 347 346 346 348 349 348 350 348 346 345 345 344 344 345 345 345 349 350 348 344 342 342 343 345 345 345 342 341 342 344 339
356 361 358 360 356 357 358 357 355 354 353 346 344 344 346 345 345 347 348 345 345 347 348 348 350 348 346 346 345 348 348 348 350 349 349 350 349 345 341 344 345 345 341 349 348 348 346 344 348
358 357 358 358 355 355 357 353 357 356 352 344 342 341 345 345 341 342 346 346 347 347 347 348 347 347 349 348 348 349 348 348 348 349 346 345 344 343 343 338 346 347 346 348 347 347 344 343 346
358 360 356 354 351 353 353 356 356 356 348 344 343 343 344 344 343 345 346 345 341 346 348 349 347 348 349 348 346 348 348 347 347 348 345 346 349 346 345 346 345 337 345 347 346 346 345 345 345
356 357 354 352 352 352 356 357 355 354 348 345 343 341 341 343 341 346 346 344 346 349 348 348 349 347 346 348 348 347 346 348 347 347 347 350 348 340 343 346 338 345 346 346 344 345 343 342 345
354 358 354 354 354 356 351 356 356 351 347 346 343 341 339 338 343 346 347 347 348 348 347 347 347 346 344 345 343 344 346 346 341 346 349 346 348 350 345 343 342 345 348 341 341 342 344 344 345
358 357 361 355 354 353 353 359 352 349 347 345 342 341 340 340 343 345 346 346 346 346 345 344 345 348 342 345 344 343 345 343 346 348 351 348 347 347 346 345 349 350 351 351 345 344 344 342 344
359 361 362 357 353 353 355 355 353 351 347 344 341 340 340 342 342 345 346 345 346 345 347 350 347 341 343 346 347 346 348 345 347 346 351 350 348 345 344 346 349 350 348 349 348 349 348 344 345
358 359 360 362 355 354 354 354 352 350 347 343 340 340 340 342 341 344 346 346 345 347 347 350 345 342 347 349 347 348 345 346 345 347 344 350 347 345 344 346 347 349 344 348 345 351 351 345 346
346 355 361 359 355 355 355 353 351 349 351 342 340 340 340 340 341 345 347 347 347 346 348 348 346 343 349 347 346 346 345 350 347 348 348 350 349 340 348 348 344 345 348 352 350 351 352 341 347
352 357 361 358 355 353 355 355 354 352 349 348 341 340 340 340 340 343 347 349 347 348 348 348 348 347 346 346 346 346 347 348 350 347 351 348 349 348 351 350 344 347 349 348 349 351 354 350 344
353 359 357 359 355 350 353 355 354 350 347 346 343 344 339 341 341 345 349 348 347 348 348 349 347 348 345 347 346 348 350 347 350 349 347 350 349 349 352 352 350 349 351 349 353 354 354 355 354
352 355 353 357 353 358 352 361 356 352 350 347 343 347 345 341 341 344 348 350 349 347 345 349 348 348 348 342 347 348 349 348 349 348 344 348 345 349 352 351 353 346 347 349 353 354 351 354 355
355 345 357 355 355 355 355 360 357 353 353 350 344 347 345 342 345 343 345 352 352 347 347 349 348 349 348 348 345 347 348 347 345 348 350 349 349 348 349 350 349 345 340 351 353 354 351 353 354
348 353 353 353 352 357 355 358 360 354 354 350 343 345 346 345 343 344 343 349 353 353 354 353 349 348 350 350 349 347 348 350 347 348 350 350 349 347 349 351 348 349 351 352 353 354 351 354 354
349 348 354 356 358 354 350 352 353 351 349 349 342 342 346 345 343 344 343 344 347 353 356 355 352 352 352 349 349 349 350 349 349 349 350 349 349 349 347 352 350 351 349 352 351 354 349 353 353
332 342 347 359 360 361 352 359 353 351 352 349 340 341 346 346 342 344 345 346 348 348 357 357 353 353 351 350 350 350 350 349 346 348 351 352 349 349 348 350 351 351 351 348 353 353 352 351 352
327 338 337 346 355 355 359 356 358 355 355 351 346 344 347 346 344 344 345 344 348 349 353 355 353 351 351 352 353 352 351 350 351 351 352 352 351 350 351 348 350 352 350 352 353 353 350 350 355
328 330 333 330 354 361 358 359 359 361 354 349 345 345 346 344 343 344 344 343 348 351 352 355 352 351 351 354 351 350 351 352 352 353 353 353 351 351 350 350 352 353 352 353 353 352 353 352 353
326 327 328 327 334 343 353 355 357 355 354 350 349 346 343 344 345 344 344 347 347 350 354 356 353 353 353 353 351 352 351 350 352 353 349 353 352 354 353 352 353 349 354 353 351 349 351 351 353
325 324 326 329 330 333 343 350 353 351 342 348 348 346 346 347 346 348 347 346 346 353 355 357 354 351 351 355 351 350 352 353 352 353 353 351 353 352 353 351 351 353 353 352 351 353 352 353 350
Wind_Speed
6 4 2 2 4 2 4 12 12 18 21 17 17 12 12 4 7 10 31 30 25 23 21 20 20 19 18 19 19 19 19 20 20 21 22 22 21 22 23 22 21 21 22 20 19 18 19 20 20
6 6 4 2 2 2 1 12 16 21 17 20 24 25 24 22 22 24 24 34 26 24 22 21 21 20 20 19 19 19 18 19 20 20 22 21 21 22 20 21 21 20 21 19 18 18 17 17 19
6 2 3 0 3 3 3 17 15 20 18 21 13 15 8 19 21 15 39 33 31 25 23 20 20 20 18 19 18 18 18 18 20 22 22 23 21 19 19 18 17 17 19 17 17 18 19 20 22
4 5 2 1 5 4 4 11 22 22 20 25 21 16 19 30 28 36 38 40 34 27 24 22 20 19 19 18 18 18 19 18 19 20 21 19 18 17 16 16 16 16 17 16 15 17 19 19 19
6 2 3 2 4 9 8 18 4 19 17 19 23 22 16 29 42 41 37 33 30 26 23 19 18 18 18 18 17 17 19 19 19 20 19 19 16 16 18 18 17 16 15 15 14 17 19 18 20
3 1 2 6 6 10 6 15 16 20 22 18 23 22 10 35 36 34 35 30 30 26 22 20 18 18 19 17 17 17 17 18 20 20 19 18 18 18 17 17 15 15 15 16 17 18 20 22 19
2 1 3 6 8 7 10 16 1 22 20 19 17 21 13 24 27 34 36 34 29 25 22 21 20 19 19 18 17 17 17 18 19 20 20 19 18 18 17 16 14 16 16 17 17 19 22 18 15
2 1 4 7 11 2 6 5 5 15 19 23 22 12 12 25 32 32 33 34 29 23 22 21 21 20 20 17 16 16 18 17 18 20 19 19 17 15 15 15 16 16 16 17 19 22 22 18 17
3 2 2 5 11 5 8 7 5 7 22 15 11 15 25 34 34 30 27 21 23 21 23 22 23 21 18 19 17 17 17 17 17 17 18 19 18 15 13 15 14 13 14 16 18 19 17 16 14
4 2 2 14 11 7 4 6 6 13 6 19 21 28 33 36 34 27 24 22 17 23 22 19 24 20 18 18 18 18 19 19 17 17 15 12 14 13 14 13 11 7 6 6 9 9 5 1 5
5 2 4 5 4 11 8 5 3 14 10 17 22 23 27 27 25 28 28 30 25 19 21 25 21 21 17 22 21 19 16 14 12 13 14 14 13 11 13 9 2 6 2 4 4 3 3 5 4
5 4 4 2 5 4 3 3 4 5 10 20 20 18 22 18 16 21 28 30 32 25 23 21 22 20 16 18 15 19 20 16 16 14 16 17 16 10 11 13 9 4 7 3 5 5 7 10 12
10 5 8 8 8 4 1 4 7 10 16 16 16 15 22 18 21 31 35 34 27 25 21 20 16 15 18 14 14 16 20 15 18 14 14 12 11 7 9 12 2 8 7 5 6 4 10 10 12
12 13 6 7 7 2 8 9 5 4 11 18 13 10 7 21 20 30 30 30 27 30 22 21 15 14 12 8 15 18 15 16 16 16 11 6 9 10 10 6 8 13 8 6 5 8 11 11 9
22 18 10 5 3 4 9 4 3 12 17 17 13 8 8 9 30 28 32 29 34 31 27 24 16 15 12 12 20 22 20 14 11 14 14 14 12 12 8 12 14 6 1 5 6 6 4 11 9
9 8 6 2 4 5 4 3 5 3 18 16 14 11 12 9 23 30 31 32 33 29 26 24 18 16 14 14 17 18 23 18 18 13 13 14 11 13 9 2 4 3 7 7 7 4 5 9 8
4 5 9 2 1 2 2 2 6 5 11 15 13 10 12 12 20 25 33 33 29 26 28 22 19 17 16 10 4 12 27 25 20 15 10 12 12 8 7 3 4 6 8 9 7 11 9 7 8
8 7 6 9 6 1 2 2 7 5 9 13 11 10 11 13 11 26 29 32 28 25 22 24 22 21 13 6 8 17 23 23 19 18 13 12 9 11 11 3 2 7 9 10 8 11 8 2 4
7 7 13 9 7 5 2 2 10 7 9 13 10 12 12 13 18 30 30 31 28 26 23 26 23 23 15 13 10 10 13 14 22 18 16 12 7 9 10 7 6 11 7 8 6 11 14 7 5
14 10 11 8 15 3 5 6 10 11 6 8 7 13 14 11 13 24 29 29 27 27 26 26 23 21 15 16 13 11 9 11 23 17 15 14 9 5 6 6 6 6 5 5 6 10 15 1 6
15 16 11 10 11 6 10 3 7 10 7 10 7 5 10 19 17 16 26 30 29 30 28 25 23 21 16 11 12 13 9 16 14 15 13 12 9 8 5 8 7 4 2 3 6 7 12 16 19
3 13 14 21 9 4 8 2 6 10 15 8 9 6 4 17 15 17 25 28 27 34 29 27 23 21 15 17 13 11 13 18 19 19 12 13 9 9 8 7 5 8 4 3 6 8 11 16 19
8 24 17 20 6 9 4 1 4 11 18 20 13 6 6 15 17 15 26 31 31 34 33 29 25 24 19 20 20 19 15 14 17 14 14 15 12 11 10 7 8 5 4 2 4 7 8 11 13
19 17 9 4 4 3 10 4 7 12 27 21 14 10 8 8 13 18 22 34 31 29 29 33 29 25 24 22 21 22 14 14 18 17 16 17 15 15 11 11 8 8 6 3 3 4 5 8 10
19 12 2 1 3 4 4 8 15 13 18 24 23 14 12 13 10 13 14 23 27 32 31 31 31 29 24 22 21 19 13 12 15 18 19 18 16 17 15 14 10 10 9 6 3 3 2 5 7
11 10 5 5 2 5 7 6 7 16 15 20 22 15 15 15 11 14 19 22 29 29 34 32 32 29 26 21 20 17 15 11 18 19 14 15 19 19 18 15 13 10 8 6 3 4 4 5 5
9 6 15 8 4 4 6 4 14 8 12 17 19 17 18 14 15 14 19 24 23 30 34 36 33 29 26 23 19 17 14 11 12 13 14 12 9 21 20 19 14 9 12 10 7 6 5 4 6
7 5 2 3 8 4 7 6 3 10 5 4 14 18 16 10 14 15 22 21 23 38 37 37 36 33 29 25 21 19 15 14 10 13 10 4 6 15 21 17 15 12 10 12 10 7 4 7 7
5 5 3 1 3 3 3 4 7 16 4 3 8 9 13 13 14 15 22 25 25 29 33 32 35 32 28 24 23 19 16 13 10 9 11 8 6 9 18 16 15 13 9 9 8 9 7 6 7
8 8 7 5 8 2 5 5 8 16 10 9 14 15 13 16 11 15 24 27 19 24 31 31 31 33 29 22 23 21 18 15 14 13 11 11 9 10 12 13 14 12 11 10 9 7 6 7 5
Wind_Direction
267 278 354 26 4 317 274 96 85 81 61 76 69 89 92 108 114 124 132 128 128 126 122 118 116 112 106 104 100 101 101 102 103 102 103 102 100 100 100 98 97 96 97 95 95 95 97 101 93
244 286 198 92 281 277 297 84 80 94 98 83 80 80 79 76 103 118 121 130 125 121 124 118 115 111 108 104 100 104 106 107 106 105 105 105 100 100 99 98 97 95 95 95 99 98 101 101 94
250 203 63 1 239 293 39 95 80 81 84 92 82 85 75 111 123 113 131 127 127 130 125 120 117 110 110 106 103 103 108 108 109 110 107 107 103 103 99 99 97 96 100 100 100 104 110 106 98
225 87 105 23 308 273 322 112 102 99 96 99 106 86 114 116 111 122 123 130 131 129 124 122 121 117 111 111 104 106 111 114 113 112 110 110 109 108 106 107 106 104 105 103 105 109 117 112 105
254 120 111 67 344 289 316 104 90 95 110 92 103 107 98 108 118 120 123 131 126 126 126 127 126 124 120 114 113 113 114 118 118 117 114 112 108 110 111 108 108 107 108 107 111 113 120 117 111
13 148 87 111 217 274 304 65 92 100 104 106 105 110 115 123 123 126 128 129 124 124 124 126 125 122 124 120 118 116 114 121 124 124 121 116 114 115 113 110 109 108 108 107 105 112 122 119 110
159 67 76 121 177 303 29 84 132 115 123 115 118 117 129 124 128 121 128 130 128 128 129 129 127 126 122 123 124 124 123 123 128 127 124 119 118 117 118 117 116 109 106 105 108 111 125 124 121
159 102 95 108 179 234 6 91 55 130 123 123 127 148 131 128 120 124 128 125 132 130 131 133 133 128 130 129 128 132 130 128 131 131 128 124 123 124 119 117 116 114 110 107 110 114 117 111 107
211 45 116 168 169 210 280 120 196 85 127 141 138 130 138 130 130 125 131 128 132 141 137 134 134 132 131 131 136 135 134 133 132 134 127 122 123 123 120 116 113 114 115 115 120 122 126 123 122
198 69 95 206 174 162 195 114 144 112 184 117 135 122 142 140 142 133 126 118 151 146 146 147 142 139 127 140 138 135 131 126 126 128 132 135 126 132 130 114 111 99 105 132 140 128 113 98 138
164 117 14 104 146 164 162 146 199 132 136 154 138 141 147 145 151 144 142 148 161 151 139 142 154 143 142 140 142 138 138 136 138 143 146 155 160 153 140 105 108 66 303 221 241 186 43 111 225
99 345 88 106 56 56 37 73 44 73 185 137 142 154 155 148 151 138 132 127 122 133 142 146 150 151 151 137 165 156 144 148 148 148 144 153 157 156 137 102 25 111 315 316 181 95 153 60 61
66 73 100 116 75 84 219 109 125 259 130 135 148 159 157 148 159 127 139 143 147 143 149 146 146 153 155 166 172 168 162 157 151 152 151 152 141 164 107 118 127 41 123 137 131 123 147 100 75
116 95 114 119 40 44 112 136 104 238 137 142 150 144 152 150 138 132 130 135 140 142 154 150 153 147 150 181 191 192 171 155 153 153 152 188 146 118 98 122 151 154 101 126 138 136 130 112 126
141 128 121 49 5 39 339 149 146 155 155 143 140 166 134 147 131 134 142 146 143 154 153 148 148 148 140 120 133 144 138 144 161 121 114 141 139 115 91 142 130 141 173 144 153 130 130 143 132
136 138 154 270 360 322 24 158 188 321 148 144 155 179 155 143 134 133 136 141 146 148 149 150 160 167 160 139 141 154 155 174 159 132 120 132 150 105 109 164 341 56 344 256 262 272 242 183 160
17 222 118 120 318 341 72 214 294 352 168 150 169 182 156 136 129 131 137 145 147 156 148 150 157 163 160 154 217 172 155 160 158 150 146 152 135 131 160 102 32 47 81 79 76 76 77 174 193
185 215 169 128 188 169 14 32 305 319 163 159 177 168 145 140 141 132 136 146 148 146 153 163 162 161 153 163 158 140 162 155 155 161 149 136 133 149 141 113 19 75 86 66 44 54 18 172 167
102 93 102 123 121 102 67 294 275 330 345 162 192 160 155 152 150 138 141 144 148 146 142 168 161 158 168 163 167 125 133 158 166 160 145 149 144 142 120 108 92 79 53 46 26 16 357 155 336
78 112 117 128 153 108 134 272 313 309 299 303 199 174 167 152 147 145 147 145 151 144 147 157 160 165 180 176 174 151 125 151 160 156 152 153 157 162 92 80 98 77 44 38 55 5 0 348 18
134 165 202 148 138 95 130 300 265 294 274 274 294 256 177 159 160 141 151 152 163 156 154 159 163 175 179 186 189 168 148 151 160 168 178 166 164 164 151 115 114 157 186 22 17 5 23 27 33
122 11 181 145 138 148 238 158 209 247 259 249 256 229 233 162 160 153 156 157 165 173 173 167 168 181 170 185 190 220 189 155 164 178 182 181 178 180 160 167 160 177 186 121 26 7 26 36 41
136 107 218 162 121 110 237 115 232 219 248 235 224 177 209 167 153 160 158 165 173 172 172 170 179 181 168 177 196 203 201 211 193 189 204 190 194 203 189 193 185 182 162 87 18 2 27 34 42
145 132 115 64 87 133 177 183 235 206 221 222 217 177 215 185 162 170 162 154 172 168 172 173 173 181 173 178 191 198 196 225 201 198 204 187 197 208 196 206 189 177 193 188 234 348 9 19 34
120 136 120 38 55 247 186 160 240 232 216 211 210 183 201 192 187 172 163 170 164 170 171 172 172 172 181 182 185 183 202 183 180 187 192 202 206 205 200 195 193 195 205 201 199 315 341 3 0
174 168 224 131 88 327 143 211 262 296 211 200 204 186 204 195 191 175 181 161 172 171 170 168 174 171 177 181 183 185 190 192 187 193 196 212 217 211 198 202 214 195 196 203 194 279 325 330 311
263 186 228 102 50 65 298 320 311 7 148 177 188 187 201 200 193 190 189 182 178 178 167 169 174 174 175 180 183 187 187 183 206 217 211 193 209 223 207 207 213 220 207 203 208 236 257 302 323
195 255 238 284 151 172 195 181 221 18 17 130 185 188 204 207 194 191 191 194 174 166 169 171 176 176 173 178 186 188 191 192 182 193 210 216 186 188 196 206 211 208 208 216 211 224 252 284 254
286 294 309 196 212 196 117 272 184 143 159 3 306 281 227 219 214 190 185 187 179 164 162 168 174 174 175 176 183 192 199 199 203 196 211 222 204 177 196 198 205 208 217 206 229 239 258 304 234
206 228 222 137 284 234 166 219 163 153 155 161 212 252 262 241 211 166 162 169 186 156 161 167 172 175 177 181 189 195 197 202 207 209 213 211 218 213 202 209 210 219 229 239 236 234 264 262 252